This demonstration page uses our WeatherBlox Daily Observations layout. Learn more.

Left ArrowRight Arrow

Hourly Observations for September 22, 2022

Temp ( °F °C ) Dew Point ( °F °C ) Humidity (%) Winds ( mph kmh ) Pressure ( in mb ) Visibility ( mi km ) Precip ( " mm )
12:55 am 00:55 Mostly Cloudy 59 15.1 43 6.1 55 55 NNW 8 13 30.24 1024 10 16 0.00 0.00
1:55 am 01:55 Partly Cloudy 58 14.4 42 5.5 55 55 N 7 11 30.26 1025 10 16 0.00 0.00
2:55 am 02:55 Cloudy 58 14.2 41 4.8 53 53 NNE 5 7 30.26 1025 10 16 0.00 0.00
3:55 am 03:55 Cloudy 57 13.7 40 4.6 54 54 NNE 6 9 30.25 1024 10 16 0.00 0.00
4:55 am 04:55 Cloudy 56 13.2 41 4.9 57 57 NNE 3 6 30.28 1025 10 16 0.00 0.00
5:55 am 05:55 Mostly Cloudy 55 12.9 41 4.8 58 58 NNE 5 7 30.30 1026 10 16 0.00 0.00
6:55 am 06:55 Cloudy 55 12.8 40 4.7 58 58 NNE 5 7 30.31 1026 10 16 0.00 0.00
7:55 am 07:55 Mostly Cloudy 55 12.7 42 5.4 61 61 N 6 9 30.33 1027 10 16 0.00 0.00
8:55 am 08:55 Cloudy 55 13 43 5.9 62 62 NNE 6 9 30.35 1028 10 16 0.00 0.00
9:55 am 09:55 Mostly Cloudy 56 13.6 43 6.2 61 61 NE 7 11 30.36 1028 10 16 0.00 0.00
10:55 am 10:55 Mostly Cloudy 60 15.3 45 7.1 58 58 NNE 7 11 30.35 1028 10 16 0.00 0.00
11:55 am 11:55 Mostly Cloudy 59 15.2 45 7 58 58 NE 5 7 30.35 1028 10 16 0.00 0.00
12:55 pm 12:55 Mostly Cloudy 60 15.7 44 6.9 56 56 ENE 7 11 30.34 1027 10 16 0.00 0.00
1:55 pm 13:55 Mostly Cloudy 62 16.7 43 5.9 49 49 E 5 7 30.32 1027 10 16 0.00 0.00
2:55 pm 14:55 Mostly Cloudy 62 16.6 42 5.5 48 48 ESE 5 7 30.29 1026 10 16 0.00 0.00
3:55 pm 15:55 Mostly Cloudy 63 17 42 5.3 46 46 E 3 6 30.27 1025 10 16 0.00 0.00
4:55 pm 16:55 Mostly Cloudy 62 16.9 43 6.1 49 49 E 3 6 30.25 1024 10 16 0.00 0.00
5:55 pm 17:55 Mostly Cloudy 62 16.7 43 6.2 50 50 ESE 5 7 30.23 1024 10 16 0.00 0.00
7:55 pm 19:55 Cloudy 60 15.7 44 6.9 56 56 S 5 7 30.21 1023 10 16 0.00 0.00
8:55 pm 20:55 Cloudy 60 15.4 46 7.7 60 60 ESE 5 7 30.20 1023 10 16 0.00 0.00
9:55 pm 21:55 Cloudy 58 14.6 48 8.8 68 68 SE 5 7 30.21 1023 10 16 0.00 0.00
10:00 pm 22:00 Cloudy with Light Rain 59 15 46 8 63 63 SSE 5 7 30.22 1024 10 16 0.00 0.00
10:55 pm 22:55 Cloudy with Light Rain 58 14.4 48 9 70 70 SSE 3 6 30.22 1023 10 16 0.01 0.13
11:55 pm 23:55 Mostly Cloudy with Light Showers 56 13.6 50 9.8 78 78 ESE 3 6 30.20 1023 10 16 0.01 0.13

Powered by AerisWeather